Location: Angwan Shehu
(11.2514°N, 7.4613°E)
Time: 03:12:18
(UTC+00:00)

Vanguard 3 - Pass Details

Date: 04 August 2021
Orbit: 510 x 3260 km, 33.3° (Epoch: 16 September)

Event Time Altitude Azimuth Distance (km) Brightness Sun altitude
Rises 00:33:21 0° 297° (WNW) 7,203 12.0 -58.2°
Reaches altitude 10° 00:38:35 10° 293° (WNW) 6,067 11.5 -57.6°
Enters shadow 00:40:57 15° 291° (WNW) 5,545 11.2 -57.4°
